Volver al catálogo

SKYSAT C8

ActivoCienciaSSO
NORAD 42990·PAYLOAD·🇺🇸 United States

Lanzado Oct 31, 2017 desde Vandenberg Space Force Base

Loading…

Próximos Pases (próximas 24 horas)

TLE

ActualizadoSource: CelesTrak SupGP

Época: Sep 14, 2026, 14:49 UTC

1 42990C 17068D   26257.61777778  .00012241  00000+0  32277-3 0  2578
2 42990  97.4652  35.6475 0001514  92.3047 330.5966 15.38534633    19

Sigue SKYSAT C8 en tiempo real con AllMySat

Download on the App Store